[Iaude] MPEC G10: 2024 GB [a=1.33,e=0.24,i=15.2,H=23.9]

mpec at cfa.harvard.edu mpec at cfa.harvard.edu
Tue Apr 2 21:50:57 EDT 2024


M.P.E.C. 2024-G10                                 Issued 2024 April 3, 01:49 UT

     The Minor Planet Electronic Circulars contain information on unusual
         minor planets, routine data on comets and natural satellites,
         and occasional editorial announcements.  They are published
    on behalf of Division F of the International Astronomical Union by the
          Minor Planet Center, Smithsonian Astrophysical Observatory,
                          Cambridge, MA 02138, U.S.A.
			  
             Prepared using the Tamkin Foundation Computer Network

                              MPC at CFA.HARVARD.EDU
            URL https://www.minorplanetcenter.net/    ISSN 1523-6714

                                    2024 GB                                     


Observations:
     K24G00B* C2024 04 01.24829509 22 00.889-13 01 07.81         19.21wXEG010F51
     K24G00B  C2024 04 01.25989509 22 03.024-12 58 16.99         19.23wXEG010F51
     K24G00B  C2024 04 01.27138509 22 05.130-12 55 26.90         19.14wXEG010F51
     K24G00B  C2024 04 01.28286209 22 07.221-12 52 37.07         19.22wXEG010F51
     K24G00B  C2024 04 01.33712009 22 17.173-12 39 05.80         18.98GVEG010F51
     K24G00B  C2024 04 01.33776609 22 17.293-12 38 55.95         18.98GVEG010F51
     K24G00B KC2024 04 01.41196 09 22 41.22 -12 17 36.0          18.9 VqEG010E23
     K24G00B KC2024 04 01.42584 09 22 43.92 -12 14 05.2          19.1 VqEG010E23
     K24G00B KC2024 04 01.43742 09 22 46.13 -12 11 08.8          18.7 VqEG010E23
     K24G00B KB2024 04 01.46420 09 22 54.05 -12 07 38.1          19.1 GXEG010Q06
     K24G00B KB2024 04 01.46865 09 22 54.86 -12 06 30.5          18.7 GXEG010Q06
     K24G00B KB2024 04 01.47310 09 22 55.81 -12 05 23.0          19.3 GXEG010Q06
     K24G00B KB2024 04 01.61545 09 23 30.39 -11 28 26.1                VEG010O46
     K24G00B KB2024 04 01.62233 09 23 31.77 -11 26 38.9          18.1 GVEG010O46
     K24G00B KB2024 04 01.62778 09 23 32.82 -11 25 12.8          19.4 GVEG010O46
     K24G00B KB2024 04 01.63321 09 23 33.96 -11 23 47.7          17.8 GVEG010O46
     K24G00B KC2024 04 01.83862109 24 31.06 -10 26 43.3                VEG010M21
     K24G00B KC2024 04 01.84397409 24 32.15 -10 25 16.6                VEG010M21
     K24G00B KC2024 04 01.85276309 24 33.94 -10 22 54.0          18.8 GVEG010M21
     K24G00B KB2024 04 01.90472709 24 47.707-10 12 10.98         19.0 GXEG010B72
     K24G00B KB2024 04 01.90948609 24 48.799-10 10 53.20         18.6 GXEG010B72
     K24G00B KB2024 04 01.91434709 24 49.925-10 09 33.26         19.2 GXEG010B72
     K24G00B KB2024 04 01.94034609 24 56.52 -10 02 15.9          19.1 GXEG010958
     K24G00B KB2024 04 01.94837209 24 58.39 -10 00 02.5          19.0 GXEG010958
     K24G00B KB2024 04 01.95290409 24 59.42 -09 58 47.1          18.8 GXEG010958
     K24G00B KC2024 04 02.40877 09 27 13.91 -07 45 21.3          18.7 rZEG010R56
     K24G00B KC2024 04 02.41384 09 27 15.13 -07 43 51.5          18.2 rZEG010R56
     K24G00B KC2024 04 02.41811 09 27 16.11 -07 42 33.9                ZEG010R56
     K24G00B KB2024 04 02.79504209 29 15.22 -05 53 29.0                VEG010204
     K24G00B KC2024 04 02.80306 09 29 17.02 -05 50 54.8          19.0 GXEG010K83
     K24G00B KB2024 04 02.80444309 29 17.64 -05 50 34.2          18.9 GVEG010204
     K24G00B KC2024 04 02.80542 09 29 17.57 -05 50 11.4          19.1 GXEG010K83
     K24G00B KC2024 04 02.80768 09 29 18.15 -05 49 29.3          19.5 GXEG010K83
     K24G00B KC2024 04 02.81613309 29 20.422-05 46 52.38         19.2 GVEG010D63
     K24G00B KC2024 04 02.81997509 29 21.394-05 45 41.08         19.1 GVEG010D63
     K24G00B KC2024 04 02.82902309 29 23.680-05 42 52.37         18.8 GVEG010D63
     K24G00B KC2024 04 02.84079609 29 26.14 -05 39 14.8          18.3 GVEG010L01
     K24G00B KC2024 04 02.84227909 29 26.52 -05 38 47.3          18.5 GVEG010L01
     K24G00B KC2024 04 02.84376209 29 26.88 -05 38 19.6          18.7 GVEG010L01
     K24G00B KC2024 04 02.84524609 29 27.28 -05 37 52.1          18.5 GVEG010L01
     K24G00B KC2024 04 02.84673109 29 27.65 -05 37 23.9          18.7 GVEG010L01
     K24G00B KB2024 04 02.85249209 29 31.58 -05 35 32.3          19.0 GXEG010958
     K24G00B KB2024 04 02.85724609 29 32.82 -05 34 03.9          19.0 GXEG010958
     K24G00B KB2024 04 02.86195209 29 33.99 -05 32 34.7          18.7 GXEG010958
     K24G00B KB2024 04 02.87617 09 29 37.603-05 27 58.75         19.4 GXEG010J57
     K24G00B KC2024 04 02.87859 09 29 36.26 -05 27 22.8                VEG010104
     K24G00B KB2024 04 02.87979 09 29 38.513-05 26 50.64         19.4 GXEG010J57
     K24G00B KC2024 04 02.88120 09 29 36.92 -05 26 34.2          18.7 GVEG010104
     K24G00B KB2024 04 02.88338 09 29 39.422-05 25 43.57         19.0 GXEG010J57
     K24G00B KC2024 04 02.88371 09 29 37.64 -05 25 46.4          19.0 GVEG010104

Observer details:
104 San Marcello Pistoiese.  Observers P. Bacci, M. Maestripieri.  Measurer P.
    Bacci.  0.60-m f/4.0 reflector + CCD.
204 Schiaparelli Observatory.  Observer L. Buzzi.  0.84-m f/3.5 reflector +
    CMO.
958 Observatoire de Dax.  Observer P. Dupouy.  0.50-m f/4.5 Reflector + CMO.
B72 Soerth Observatory.  Observer B. Koch.  0.36-m f/7.6 reflector + CMO.
D63 G. Pascoli Observatory, Castelvecchio Pascoli (since June 2023).  Observer
    R. Bacci.  0.41-m f/3.75 Reflector + CCD.
E23 Arcadia.  Observer A. Hidas.  0.35-m f/1.9 reflector + CCD.
F51 Pan-STARRS 1, Haleakala.  Observers J. Herman, T. Lowe, P. Minguez, A.
    Schultz, I. Smith.  Measurers K. Chambers, T. de Boer, J. Fairlamb, H.
    Gao, M. Huber, C.-C. Lin, E. Magnier, Y. Ramanjooloo, R. Wainscoat, R.
    Weryk.  1.8-m Ritchey-Chretien + CCD.
J57 Centro Astronomico Alto Turia, Valencia.  Observer A. Fornas.  Measurers
    A. Fornas, G. Fornas, E. Arce, V. Mas.  0.43-m f/6.8 Reflector CDK + CMO.
K83 Beppe Forti Astronomical Observatory, Montelupo.  Observers M. Tombelli,
    M. Iozzi, F. Cheli, M. Lombardo, A. Mazzanti.  Measurers M. Tombelli, F.
    Bernardi.  0.40-m f/8 Ritchey-Chretien + CCD.
L01 Visnjan Observatory, Tican.  Observers K. Korlevic, L. Poropat.  Measurer
    K. Korlevic.  1.0-m f/2.9 reflector + CCD.
M21 Schiaparelli Southern Observatory, Hakos.  Observers A. Aletti, F.
    Bellini, L. Buzzi, G. Galli.  Measurer L. Buzzi.  0.36-m f/8.4 reflector +
    CCD.
O46 Daocheng Glacier Observatory.  Observer Z. Wang.  0.25-m f/8 reflector +
    CMO.
Q06 Tarui Observatory, Tarui.  Observer H. Watanabe.  0.35-m f/1.9 Schmidt-
    Cassegrain + CMO.
R56 Scott Street Observatory, Lake Tekapo.  Observer A. Vilquin Barrajon.
    0.20-m f/8.1 reflector + CCD.

Orbital elements:
2024 GB                                                  Earth MOID = 0.0226 AU
Epoch 2024 Mar. 31.0 TT = JDT 2460400.5                 Veres                   
M 342.13150              (2000.0)            P               Q                  
n   0.64157334     Peri.   23.69596     -0.78884872     +0.61106080             
a   1.3313897      Node   194.55275     -0.59738565     -0.78750171             
e   0.2434366      Incl.   15.16794     -0.14438864     -0.08028548             
P   1.54           H   23.95          G   0.15           U   7                  
Residuals in seconds of arc
240401 F51  0.2-  0.2+    240401 M21  0.2-  0.7-    240402 D63  0.4+  0.1+
240401 F51  0.1-  0.0     240401 M21  0.1-  0.8-    240402 D63  0.2+  0.0
240401 F51  0.0   0.2+    240401 B72  0.1-  0.1-    240402 L01  0.2+  0.3+
240401 F51  0.1-  0.2-    240401 B72  0.1-  0.2-    240402 L01  0.1+  0.0
240401 F51  0.1+  0.0     240401 B72  0.0   0.1+    240402 L01  0.2-  0.1-
240401 F51  0.1+  0.2+    240401 958  0.2-  0.6-    240402 L01  0.1+  0.3-
240401 E23  0.0   0.5-    240401 958  0.6+  0.6+    240402 L01  0.0   0.0
240401 E23  0.1-  0.1-    240401 958  0.5+  1.2+    240402 958  0.0   0.2+
240401 E23  0.7-  0.2+    240402 R56  0.4+  0.6-    240402 958  0.4+  0.4-
240401 Q06  0.8+  0.1+    240402 R56  0.6+  0.1-    240402 958  0.0   0.6+
240401 Q06  0.2-  0.2-    240402 R56  0.1+  2.2+    240402 J57  0.0   0.7+
240401 Q06  0.8+  0.7-    240402 204  0.0   0.3-    240402 104  0.4-  0.3+
240401 O46  0.0   0.5+    240402 K83  0.6+  0.4+    240402 J57  0.0   0.7+
240401 O46  0.2+  0.2-    240402 204  0.1+  0.1-    240402 104  0.7-  0.2-
240401 O46  0.3-  0.4+    240402 K83  0.2-  0.0     240402 J57  0.0   0.2+
240401 O46  0.5+  0.2+    240402 K83  0.1-  0.0     240402 104  0.4+  0.3+
240401 M21  0.4-  0.7-    240402 D63  0.4+  0.4+

Ephemeris:
2024 GB                  a,e,i = 1.33, 0.24, 15                  q = 1.0073
Date    TT    R. A. (2000) Decl.     Delta      r    Elong.  Phase     V
2024 03 04    08 59 05.4 -43 43 31   0.1839  1.1024   122.9    49.0    22.3
...
2024 03 19    08 56 27.1 -37 59 33   0.1094  1.0602   123.7    51.3    21.2
...
2024 03 27    09 06 07.3 -28 02 26   0.07142 1.0418   126.5    50.4    20.2
...
2024 04 02    09 25 17.0 -09 43 38   0.04686 1.0304   130.1    47.9    19.2
2024 04 03    09 30 17.5 -04 46 45   0.04360 1.0287   130.5    47.7    19.0
2024 04 04    09 36 04.1 +00 55 04   0.04074 1.0270   130.4    47.9    18.9
...
2024 04 10    10 38 35.7 +45 46 43   0.03667 1.0184   115.9    62.2    19.0
...
2024 04 18    14 52 12.3 +74 11 28   0.06219 1.0107    94.3    82.1    20.8
...
2024 05 03    18 42 25.4 +67 07 11   0.1293  1.0082    86.4    86.3    22.6

M. P. C. Staff               (C) Copyright 2024 MPC           M.P.E.C. 2024-G10





More information about the Iaude mailing list